#timestamp,LO_Frequency,Hit,StdDev 
1630076415.4,286046998.1,N
1630076435.3,286047000.6,N
1630076455.1,286047001.1,N
1630076456.0,286047001.1,N
1630076475.8,286047002.1,N
1630076495.7,286047003.9,N
1630076515.5,286047004.0,N
1630076535.3,286047003.8,N
1630076555.2,286047002.2,N
1630076575.0,286047003.1,N
1630076575.9,286047003.1,N
1630076595.8,286047001.4,N
1630076615.6,286047002.8,N
1630076635.4,286047002.2,N
1630076655.3,286046999.8,N
1630076675.1,286047001.6,N
1630076695.8,286047002.4,N
1630076715.7,286047000.3,N
1630076735.5,286046998.4,N
1630076755.4,286046997.0,N
1630076775.2,286046999.3,N
1630076795.0,286046999.3,N
1630076795.9,286046999.3,N
1630076815.8,286046999.3,N
1630076835.6,286046996.7,N
1630076855.4,286046995.3,N
1630076875.3,286046996.6,N
1630076895.1,286046996.8,N
1630076915.9,286046997.7,N
1630076935.7,286046997.7,N
1630076955.5,286046995.1,N
1630076975.4,286046996.7,N
1630076995.2,286046997.3,N
1630077015.0,286046998.9,N
1630077015.9,286046998.9,N
1630077035.8,286046997.0,N
1630077055.6,286046997.3,N
1630077075.5,286046997.7,N
1630077095.3,286046997.3,N
1630077115.1,286046997.7,N
1630077135.9,286046999.1,N
1630077155.7,286046999.2,N
1630077175.5,286046997.3,N
1630077195.4,286046997.5,N
1630077215.2,286046997.8,N
1630077235.1,286046996.5,N
1630077236.0,286046996.5,N
1630077255.8,286046999.4,N
1630077275.6,286046996.9,N
1630077295.5,286046997.0,N
1630077315.3,286046998.4,N
1630077335.2,286046996.5,Y
1630077355.9,286046998.1,P
1630077375.7,286047000.8,P
1630077395.6,286047000.9,N
1630077415.4,286047001.1,N
1630077435.2,286047001.2,N
1630077455.1,286047002.3,N
1630077456.0,286047002.3,N
1630077475.8,286046999.9,N
1630077495.7,286046998.2,N
1630077515.5,286047001.2,N
1630077535.3,286047001.2,N
1630077555.2,286047000.8,N
1630077575.9,286047001.0,N
1630077595.7,286047000.6,N
1630077615.6,286046999.4,N
1630077635.4,286046998.3,N
1630077655.3,286047000.0,N
1630077675.1,286046999.7,N
1630077676.0,286046999.7,N
1630077695.8,286047000.0,N
1630077715.7,286047002.8,N
1630077735.5,286046999.7,N
1630077755.3,286047002.3,N
1630077775.2,286047002.6,N
1630077795.0,286047002.2,N
1630077795.9,286047002.2,N
1630077815.8,286047000.7,N
1630077835.6,286046998.7,N
1630077855.4,286046998.4,N
1630077875.3,286046999.1,N
1630077895.1,286046998.7,N
1630077915.8,286046998.5,N
1630077935.7,286047000.0,N
1630077955.5,286047001.0,N
1630077975.4,286047002.4,N
1630077995.2,286047000.0,N
1630078015.0,286047000.2,N
1630078015.9,286047000.2,N
1630078035.8,286046999.9,N
1630078055.6,286047002.2,N
1630078075.4,286047002.8,N
1630078095.3,286047002.7,N
1630078115.1,286047002.6,N
1630078135.9,286047001.6,N
1630078155.7,286047003.8,N
1630078175.5,286047004.0,N
1630078195.4,286047002.4,N
1630078215.2,286047002.5,N
1630078235.0,286047002.1,N
1630078235.9,286047002.1,N
1630078255.8,286047002.0,N
1630078275.6,286047002.3,N
1630078295.5,286047000.0,N
1630078315.3,286047001.1,N
1630078335.1,286046999.8,N
1630078355.9,286047002.0,N
1630078375.7,286047000.1,N
1630078395.5,286046999.7,N
1630078415.4,286047000.6,N
1630078435.2,286046999.9,N
1630078455.1,286047002.8,N
1630078456.0,286047011.9,Y
1630078475.8,286046999.8,P
1630078495.6,286047000.2,N
1630078515.5,286047000.4,N
1630078535.3,286047000.3,N
1630078555.2,286047000.1,N
1630078575.9,286047002.5,Y
1630078595.7,286047002.7,P
1630078615.6,286047002.6,N
1630078635.4,286047000.5,N
1630078655.2,286046999.7,N
1630078675.1,286047000.1,N
1630078676.0,286047000.1,N
1630078695.8,286047000.5,N
1630078715.7,286047000.7,N
1630078735.5,286046998.2,N
1630078755.3,286047000.7,N
1630078775.2,286047001.2,N
1630078795.0,286046998.9,N
1630078795.9,286046998.9,N
1630078815.7,286046999.3,N
1630078835.6,286046998.6,N
1630078855.4,286047000.5,N
1630078875.3,286047000.3,N
1630078895.1,286047000.4,N
1630078896.0,286047000.4,N
1630078945.9,286047001.2,E
1630078955.8,286046998.9,N
1630078975.6,286047000.9,P
1630078995.5,286047000.2,N
1630079015.3,286047000.9,N
1630079035.1,286047001.1,N
1630079055.9,286046998.8,N
1630079075.7,286046998.4,N
1630079095.5,286046998.8,N
1630079115.4,286046998.1,N
1630079135.2,286047000.0,N
1630079155.1,286046999.9,N
1630079156.0,286046999.9,N
1630079175.8,286047002.0,N
1630079195.6,286046999.8,N
1630079215.5,286047002.1,N
1630079235.3,286047002.7,N
1630079255.2,286047002.2,N
1630079275.9,286047000.1,N
1630079295.7,286047001.7,N
1630079315.6,286047002.1,N
1630079335.4,286047002.1,N
1630079355.2,286046999.7,N
1630079375.1,286047000.9,N
1630079376.0,286047000.9,N
1630079395.8,286046998.2,N
1630079415.7,286046998.6,N
1630079435.5,286046998.5,N
1630079455.3,286046998.5,N
1630079475.2,286047000.8,N
1630079495.0,286046998.3,N
1630079495.9,286046998.3,N
1630079515.7,286046998.7,N
1630079535.6,286046996.5,N
1630079555.4,286046999.1,N
1630079575.3,286046999.6,N
1630079595.1,286046998.4,N
1630079596.0,286046998.4,N
1630079615.8,286046998.3,N
1630079635.7,286047000.9,N
1630079655.5,286047000.3,N
1630079675.4,286047001.3,N
1630079695.2,286047004.2,N
1630079715.0,286047001.3,N
1630079715.9,286047001.3,N
1630079735.8,286047000.0,N
1630079755.6,286047000.9,N
1630079775.4,286046998.5,N
1630079795.3,286047000.6,N
1630079815.1,286046999.7,N
1630079835.9,286047002.8,N
1630079855.7,286047000.2,N
1630079875.5,286047000.9,N
1630079895.4,286046998.3,N
1630079915.2,286046999.3,N
1630079935.0,286046998.8,N
1630079936.0,286046998.8,N
1630079955.8,286046998.6,N
1630079975.6,286046998.7,N
1630079995.5,286046998.9,N
